• In Russia
  • List of Countries
  • For 7 days
  • Water Temperature
  • Satellite Maps
  • Weather Map
  • Weather Widgets
  • user-avatar
    Login

    Hourly Weather Ust-Muya

    Today, 25 April, Thursday

    Time Temperature Precipitation Wind Pressure Humidity
    00:00 -1°C° 0 mm 1 mps 722 mmHg 67%
    01:00 -1°C° 0 mm 1 mps 722 mmHg 67%
    02:00 -2°C° 0 mm 1 mps 721 mmHg 66%
    03:00 -2°C° 0 mm 1 mps 721 mmHg 66%
    04:00 -2°C° 0 mm 1 mps 721 mmHg 65%
    05:00 -2°C° 0 mm 1 mps 721 mmHg 65%
    06:00 -1°C° 0 mm 1 mps 721 mmHg 59%
    07:00 +1°C° 0 mm 1 mps 721 mmHg 53%
    08:00 +3°C° 0 mm 1 mps 721 mmHg 49%
    09:00 +4°C° 0 mm 1 mps 721 mmHg 47%
    10:00 +5°C° 0 mm 1 mps 720 mmHg 45%
    11:00 +7°C° 0 mm 1 mps 720 mmHg 43%
    12:00 +8°C° 0 mm 1 mps 720 mmHg 41%
    13:00 +8°C° 0 mm 1 mps 720 mmHg 40%
    14:00 +9°C° 0 mm 1 mps 719 mmHg 39%
    15:00 +9°C° 0 mm 1 mps 719 mmHg 40%
    16:00 +9°C° 0 mm 1 mps 719 mmHg 41%
    17:00 +9°C° 0 mm 1 mps 719 mmHg 42%
    18:00 +7°C° 0 mm 1 mps 719 mmHg 49%
    19:00 +5°C° 0 mm 1 mps 719 mmHg 55%
    20:00 +3°C° 0 mm 1 mps 719 mmHg 62%
    21:00 +2°C° 0 mm 1 mps 720 mmHg 63%
    22:00 +2°C° 0 mm 1 mps 720 mmHg 64%
    23:00 +1°C° 0 mm 1 mps 720 mmHg 65%

    Tomorrow, 26 April, Friday

    Time Temperature Precipitation Wind Pressure Humidity
    00:00 +1°C° 0 mm 1 mps 720 mmHg 66%
    01:00 0°C° 0 mm 1 mps 720 mmHg 66%
    02:00 0°C° 0 mm 1 mps 719 mmHg 66%
    03:00 0°C° 0 mm 1 mps 719 mmHg 66%
    04:00 0°C° 0 mm 1 mps 719 mmHg 66%
    05:00 -1°C° 0 mm 1 mps 719 mmHg 66%
    06:00 +1°C° 0 mm 1 mps 718 mmHg 60%
    07:00 +3°C° 0 mm 1 mps 718 mmHg 54%
    08:00 +5°C° 0 mm 1 mps 718 mmHg 48%
    09:00 +6°C° 0 mm 1 mps 717 mmHg 46%
    10:00 +7°C° 0 mm 1 mps 717 mmHg 44%
    11:00 +8°C° 0 mm 1 mps 716 mmHg 41%
    12:00 +8°C° 0 mm 2 mps 715 mmHg 41%
    13:00 +9°C° 0 mm 2 mps 715 mmHg 40%
    14:00 +10°C° 0 mm 2 mps 714 mmHg 39%
    15:00 +9°C° 0 mm 2 mps 714 mmHg 40%
    16:00 +9°C° 0 mm 2 mps 713 mmHg 42%
    17:00 +9°C° 0 mm 2 mps 713 mmHg 44%
    18:00 +8°C° 0 mm 1 mps 713 mmHg 50%
    19:00 +6°C° 0 mm 1 mps 713 mmHg 57%
    20:00 +4°C° 0 mm 1 mps 713 mmHg 63%
    21:00 +4°C° 0 mm 1 mps 713 mmHg 63%
    22:00 +4°C° 0 mm 1 mps 713 mmHg 63%
    23:00 +3°C° 0 mm 1 mps 714 mmHg 63%

    Day after tomorrow, 27 April, Saturday

    Time Temperature Precipitation Wind Pressure Humidity
    00:00 +2°C° 0 mm 0 mps 714 mmHg 64%
    01:00 +2°C° 0 mm 0 mps 714 mmHg 65%
    02:00 +2°C° 0 mm 0 mps 714 mmHg 66%
    03:00 +1°C° 0 mm 0 mps 714 mmHg 67%
    04:00 +1°C° 0 mm 0 mps 715 mmHg 68%
    05:00 +1°C° 0 mm 0 mps 715 mmHg 69%
    06:00 +2°C° 0 mm 0 mps 715 mmHg 63%
    07:00 +4°C° 0 mm 0 mps 715 mmHg 58%
    08:00 +6°C° 0 mm 0 mps 715 mmHg 53%
    09:00 +8°C° 0 mm 0 mps 716 mmHg 50%
    10:00 +9°C° 0 mm 0 mps 716 mmHg 47%
    11:00 +12°C° 0 mm 1 mps 716 mmHg 44%
    12:00 +13°C° 0 mm 1 mps 716 mmHg 42%
    13:00 +13°C° 0 mm 1 mps 715 mmHg 40%
    14:00 +14°C° 0 mm 1 mps 715 mmHg 39%
    15:00 +13°C° 0 mm 1 mps 715 mmHg 40%
    16:00 +13°C° 0 mm 2 mps 715 mmHg 41%
    17:00 +13°C° 0 mm 2 mps 714 mmHg 42%
    18:00 +10°C° 0 mm 2 mps 714 mmHg 49%
    19:00 +8°C° 0 mm 2 mps 714 mmHg 57%
    20:00 +6°C° 0 mm 2 mps 714 mmHg 65%
    21:00 +7°C° 0 mm 1 mps 714 mmHg 66%
    22:00 +6°C° 0 mm 1 mps 714 mmHg 68%
    23:00 +5°C° 0 mm 1 mps 715 mmHg 69%

    28 April, Sunday

    Time Temperature Precipitation Wind Pressure Humidity
    00:00 +5°C° 0 mm 1 mps 715 mmHg 70%
    01:00 +5°C° 0 mm 1 mps 715 mmHg 71%
    02:00 +5°C° 0 mm 1 mps 715 mmHg 72%
    03:00 +4°C° 0 mm 1 mps 715 mmHg 74%
    04:00 +4°C° 0 mm 1 mps 715 mmHg 75%
    05:00 +2°C° 0 mm 0 mps 715 mmHg 77%
    06:00 +5°C° 0 mm 1 mps 715 mmHg 70%
    07:00 +7°C° 0 mm 1 mps 715 mmHg 63%
    08:00 +9°C° 0 mm 1 mps 714 mmHg 57%
    09:00 +10°C° 0 mm 1 mps 714 mmHg 53%
    10:00 +12°C° 0 mm 2 mps 714 mmHg 49%
    11:00 +13°C° 0 mm 2 mps 713 mmHg 46%
    12:00 +14°C° 0 mm 2 mps 712 mmHg 41%
    13:00 +15°C° 0 mm 2 mps 712 mmHg 36%
    14:00 +16°C° 0 mm 2 mps 711 mmHg 32%
    15:00 +16°C° 0 mm 2 mps 711 mmHg 29%
    16:00 +17°C° 0 mm 2 mps 710 mmHg 27%
    17:00 +17°C° 0 mm 2 mps 710 mmHg 24%
    18:00 +15°C° 0 mm 2 mps 710 mmHg 30%
    19:00 +13°C° 0 mm 2 mps 709 mmHg 35%
    20:00 +10°C° 0 mm 2 mps 709 mmHg 41%
    21:00 +9°C° 0.1 mm 2 mps 709 mmHg 43%
    22:00 +9°C° 0.1 mm 2 mps 710 mmHg 46%
    23:00 +8°C° 0.1 mm 2 mps 710 mmHg 48%

    29 April, Monday

    Time Temperature Precipitation Wind Pressure Humidity
    00:00 +8°C° 0.2 mm 2 mps 710 mmHg 53%
    01:00 +7°C° 0.2 mm 3 mps 711 mmHg 59%
    02:00 +7°C° 0.2 mm 3 mps 711 mmHg 64%
    03:00 +4°C° 0.6 mm 4 mps 711 mmHg 66%
    04:00 +3°C° 0.6 mm 4 mps 712 mmHg 68%
    05:00 +1°C° 0.6 mm 5 mps 712 mmHg 70%
    06:00 +1°C° 0.3 mm 5 mps 713 mmHg 68%
    07:00 0°C° 0.3 mm 5 mps 714 mmHg 65%
    08:00 -1°C° 0.3 mm 6 mps 715 mmHg 63%
    09:00 -1°C° 0.2 mm 6 mps 716 mmHg 61%
    10:00 -1°C° 0.2 mm 6 mps 716 mmHg 59%
    11:00 -1°C° 0.2 mm 7 mps 717 mmHg 57%
    12:00 -2°C° 0.3 mm 7 mps 718 mmHg 58%
    13:00 -2°C° 0.3 mm 6 mps 718 mmHg 60%
    14:00 -3°C° 0.3 mm 6 mps 718 mmHg 61%
    15:00 -3°C° 0.1 mm 6 mps 719 mmHg 59%
    16:00 -2°C° 0.1 mm 5 mps 720 mmHg 57%
    17:00 -2°C° 0.1 mm 5 mps 720 mmHg 55%
    18:00 -2°C° 0 mm 4 mps 721 mmHg 57%
    19:00 -3°C° 0 mm 4 mps 721 mmHg 59%
    20:00 -2°C° 0 mm 3 mps 721 mmHg 61%
    21:00 -4°C° 0 mm 3 mps 722 mmHg 64%
    22:00 -3°C° 0 mm 2 mps 722 mmHg 67%
    23:00 -4°C° 0 mm 2 mps 723 mmHg 70%

    30 April, Tuesday

    Time Temperature Precipitation Wind Pressure Humidity
    00:00 -5°C° 0 mm 2 mps 723 mmHg 70%
    01:00 -5°C° 0 mm 2 mps 723 mmHg 70%
    02:00 -5°C° 0 mm 2 mps 723 mmHg 71%
    03:00 -4°C° 0 mm 1 mps 723 mmHg 70%
    04:00 -4°C° 0 mm 1 mps 723 mmHg 69%
    05:00 -4°C° 0 mm 1 mps 723 mmHg 68%
    06:00 -2°C° 0 mm 1 mps 723 mmHg 59%
    07:00 0°C° 0 mm 1 mps 722 mmHg 51%
    08:00 +1°C° 0 mm 0 mps 722 mmHg 42%
    09:00 +4°C° 0 mm 1 mps 721 mmHg 38%
    10:00 +5°C° 0 mm 1 mps 721 mmHg 34%
    11:00 +7°C° 0 mm 1 mps 720 mmHg 31%
    12:00 +8°C° 0 mm 1 mps 720 mmHg 30%
    13:00 +9°C° 0 mm 1 mps 719 mmHg 30%
    14:00 +10°C° 0 mm 1 mps 718 mmHg 30%
    15:00 +10°C° 0 mm 1 mps 718 mmHg 31%
    16:00 +10°C° 0 mm 1 mps 717 mmHg 32%
    17:00 +10°C° 0 mm 1 mps 717 mmHg 33%
    18:00 +8°C° 0 mm 1 mps 717 mmHg 40%
    19:00 +6°C° 0 mm 1 mps 717 mmHg 46%
    20:00 +5°C° 0 mm 1 mps 718 mmHg 53%
    21:00 +4°C° 0 mm 1 mps 718 mmHg 54%
    22:00 +4°C° 0 mm 1 mps 718 mmHg 56%
    23:00 +3°C° 0 mm 1 mps 718 mmHg 57%
    Show more